Theta_e
317 317 316 317 319 317 313 312 313 311 311 315 315 317 322 321 315 314 325 332 333 332 333 336 337 335 332 331 328 327 327 326 325 324 324 324 322 322 321 320 321 320 320 320 319 318 317 317 316 316 316 316 315 315 315 313 312 312 312 311 310 310 310 308 307 307 307 307 307 307 307 307 306 306 306 306 306 306 305 305 305 304 305 305 305 304 305
320 318 318 319 320 319 318 318 315 313 314 315 316 321 324 324 324 325 330 336 333 329 331 334 334 332 330 328 327 326 326 325 325 324 324 323 322 322 321 320 320 320 319 319 318 317 317 316 316 316 315 315 315 314 314 313 312 311 311 310 309 309 308 307 306 306 306 305 305 306 305 305 305 305 304 305 305 304 304 304 304 304 305 306 306 305 305
319 320 319 319 320 321 323 325 321 315 314 316 319 323 321 324 333 331 328 335 334 327 329 332 331 329 328 327 327 327 326 325 324 324 324 323 322 321 321 320 320 319 318 318 318 317 316 316 316 316 315 315 315 314 313 312 311 311 310 309 308 307 307 306 306 306 304 304 304 305 304 304 304 304 304 304 304 303 303 303 303 304 305 305 306 305 305
317 320 319 318 320 322 323 325 322 318 316 318 322 324 320 324 335 331 326 331 332 328 329 331 329 328 327 327 327 326 325 324 323 324 323 323 322 321 321 320 319 317 317 317 318 317 316 316 316 315 315 314 314 313 312 311 311 310 309 308 307 307 306 307 307 306 305 303 302 303 303 303 303 303 303 303 302 302 302 302 302 303 303 303 303 303 303
316 321 322 321 321 319 319 322 322 322 323 323 324 325 324 326 330 328 323 323 329 329 330 330 330 329 327 326 326 325 324 324 323 323 323 322 322 321 321 319 318 317 317 317 317 317 316 316 315 315 315 314 313 312 312 311 310 309 308 307 307 306 305 306 306 305 305 304 303 302 302 301 301 301 301 302 302 301 301 301 302 302 302 302 302 301 302
317 321 324 321 318 317 318 319 318 320 322 323 324 326 326 326 326 325 323 324 327 329 329 329 330 328 327 326 325 324 324 323 323 323 322 322 322 321 319 318 317 318 318 317 316 316 316 315 314 314 314 313 312 311 311 310 309 308 308 307 306 305 304 304 304 303 303 304 304 304 303 303 302 301 302 302 301 301 301 301 301 301 301 301 301 301 301
317 320 320 319 317 317 317 316 316 317 318 320 323 324 324 322 322 326 327 324 326 329 329 328 328 327 326 326 324 323 323 323 323 323 322 322 321 320 318 317 317 318 317 316 316 315 315 314 313 313 313 312 311 311 310 309 308 307 306 306 305 304 303 302 302 302 303 303 303 303 303 303 303 302 302 301 301 301 301 300 300 300 300 300 300 300 300
317 318 317 317 318 317 316 318 318 317 318 321 323 324 324 322 321 325 328 325 326 329 328 327 327 326 325 324 323 323 322 322 322 322 321 321 319 319 318 318 318 318 316 316 315 314 313 313 313 313 312 311 310 310 309 308 306 306 306 304 303 302 302 301 301 302 302 303 302 302 302 302 302 301 301 300 300 300 300 300 299 299 299 299 299 300 300
315 318 317 317 319 318 320 325 324 320 322 324 323 323 325 323 319 321 324 324 326 328 327 326 325 323 324 325 324 322 321 321 322 321 320 320 319 319 319 318 318 317 316 315 314 313 312 312 312 311 311 310 310 308 308 307 305 305 305 303 302 301 301 301 301 301 302 302 301 301 301 301 300 300 299 299 299 299 299 299 299 299 299 300 300 300 300
313 317 318 318 318 318 320 326 323 320 322 322 321 324 327 324 319 319 323 325 326 327 326 324 323 323 326 328 325 322 321 321 320 320 319 319 319 319 318 317 316 316 314 313 312 312 312 311 311 311 310 309 308 307 306 305 304 304 304 302 301 301 301 301 301 301 302 302 301 300 300 300 299 299 299 299 299 299 299 299 299 299 299 299 300 300 299
314 317 318 317 317 319 323 324 319 318 322 320 318 321 323 326 321 320 323 325 325 326 325 323 324 327 330 331 326 321 320 318 317 317 317 317 318 317 317 316 315 314 313 312 311 311 310 309 310 310 309 309 308 306 305 304 303 302 302 302 302 302 301 301 302 302 302 301 301 300 300 299 299 299 299 299 299 299 299 298 298 298 299 299 299 299 298
316 317 316 315 316 321 326 322 317 318 319 317 318 318 318 323 321 321 324 325 324 325 324 323 326 328 330 330 326 320 317 316 316 316 315 315 316 317 316 315 314 313 312 310 310 310 309 308 308 308 308 308 307 305 303 303 302 301 302 302 302 302 301 301 301 302 302 301 301 300 299 299 298 299 299 299 299 298 298 298 298 298 298 298 298 298 298
316 316 316 314 314 319 322 320 319 319 318 317 319 319 318 319 320 322 324 324 324 323 323 324 326 324 322 323 321 317 314 314 314 315 315 315 316 316 315 313 312 311 311 310 310 309 307 307 308 308 308 306 304 303 302 301 301 301 301 301 301 301 301 301 301 301 301 301 300 300 299 299 298 299 299 298 298 297 297 297 297 297 298 298 298 298 297
314 315 315 314 314 317 319 317 316 317 319 319 319 318 315 316 319 322 323 323 323 323 323 324 323 318 316 317 316 314 314 313 313 314 314 314 314 314 313 311 311 310 309 309 308 306 306 307 307 308 307 305 302 302 301 301 301 301 301 300 299 300 300 300 300 300 300 300 300 299 299 299 298 298 298 297 297 296 297 297 297 297 298 298 298 297 297
313 314 315 314 314 317 319 319 319 318 320 320 319 317 316 315 318 321 322 321 322 322 322 320 317 316 315 315 314 314 313 313 313 313 313 313 313 312 311 310 310 309 308 307 306 305 305 306 307 308 307 304 302 301 301 301 301 301 300 299 299 299 299 299 299 299 299 299 299 299 298 298 298 298 297 297 296 296 296 297 297 297 297 297 297 297 297
314 315 315 316 316 316 317 321 322 320 318 315 315 319 321 318 318 321 322 321 321 321 319 316 315 315 315 315 314 314 313 312 313 313 313 312 312 311 311 310 309 308 306 305 304 304 304 305 306 307 307 304 301 300 300 300 300 300 300 300 299 298 298 298 298 298 298 298 298 298 298 297 297 297 297 296 296 295 296 297 297 296 297 297 297 297 296
316 316 316 315 313 312 311 314 315 315 314 311 311 316 320 319 319 320 320 321 320 319 316 315 314 314 313 313 313 313 313 313 312 312 312 311 311 311 310 309 308 307 306 304 304 303 303 304 305 306 306 305 302 300 300 300 300 300 300 299 298 298 298 298 297 297 297 297 297 297 297 297 297 297 297 296 296 296 296 297 296 296 296 296 296 296 296
314 314 313 312 312 312 312 312 310 309 311 311 310 313 318 319 319 319 319 319 318 316 315 314 314 313 312 312 312 312 312 312 311 312 312 312 311 311 309 307 306 305 304 304 303 303 303 303 304 304 304 304 302 300 300 300 300 300 300 299 298 298 297 297 297 297 296 296 296 296 297 297 297 297 296 296 296 296 296 296 296 296 296 296 296 296 296
315 316 315 312 312 312 311 312 313 311 310 310 310 312 315 317 317 317 317 316 315 315 315 314 313 312 311 311 311 311 311 311 311 312 312 311 310 309 308 306 305 304 304 303 303 302 301 302 302 302 302 303 302 300 299 299 300 300 299 299 298 297 297 297 296 296 296 296 296 296 297 297 297 296 295 295 296 296 296 296 296 296 296 296 296 296 295
317 317 314 311 311 310 308 310 313 313 312 311 310 310 312 314 315 315 314 314 314 315 314 313 312 311 311 311 311 311 311 311 311 312 311 310 309 308 306 305 304 304 304 303 303 302 301 300 301 301 302 302 301 299 299 299 299 299 299 299 298 297 297 296 296 296 296 296 296 297 297 297 297 296 295 295 296 296 296 296 296 296 296 296 296 295 296
317 315 313 312 313 313 311 310 310 311 310 310 310 310 311 312 313 313 312 313 314 314 313 312 311 311 310 310 310 310 310 311 311 311 310 309 308 306 305 304 304 304 303 303 302 301 300 300 300 301 301 300 299 299 299 299 299 299 299 299 298 297 296 296 296 296 296 296 296 297 297 297 297 296 295 295 295 295 295 295 295 296 296 295 295 295 295
317 315 315 315 316 317 316 312 310 309 308 308 310 311 312 312 313 312 312 312 312 313 313 311 310 310 310 309 310 310 310 310 310 310 309 308 307 306 305 304 303 303 303 302 301 300 299 299 299 299 299 299 298 299 299 299 299 299 299 298 297 296 296 296 296 296 296 296 296 296 297 296 296 295 295 295 295 295 295 295 294 294 294 294 294 294 294
316 314 313 312 314 316 313 309 308 308 307 308 310 311 311 312 311 311 312 311 310 311 311 311 311 311 310 310 311 310 310 310 310 309 308 307 306 305 304 303 303 302 301 301 300 299 298 298 298 298 297 297 297 298 298 298 299 299 298 297 296 296 296 296 295 295 296 296 296 296 296 296 296 296 295 295 295 295 295 294 294 294 293 293 292 292 292
314 312 310 309 312 313 310 307 307 307 307 308 310 310 310 310 310 310 311 311 310 309 309 310 311 310 310 311 311 310 310 310 309 308 307 306 305 304 304 303 302 301 300 300 299 298 298 298 297 297 297 296 297 298 298 298 298 298 297 297 296 296 296 295 295 295 296 296 296 296 296 296 296 296 296 295 295 295 294 294 293 293 293 292 292 291 290
312 310 307 307 308 308 306 306 306 306 306 308 308 308 309 309 309 309 309 309 310 309 308 307 308 309 309 310 310 310 309 309 308 307 307 305 304 304 303 302 302 301 300 299 298 298 297 297 296 296 296 296 297 297 297 297 297 296 296 296 296 296 296 295 295 295 295 295 295 296 295 295 296 296 296 296 295 295 294 293 293 293 292 292 292 291 290
308 307 306 306 307 306 306 308 308 306 306 307 308 307 308 308 309 309 308 308 308 308 307 307 307 307 307 307 307 308 308 308 307 306 305 305 304 303 303 302 301 301 300 299 298 297 297 296 296 296 296 296 296 296 296 295 295 295 295 295 296 296 296 295 295 295 295 295 295 295 295 295 295 296 296 296 295 295 294 294 293 293 292 292 292 291 291
306 306 308 310 310 307 306 308 308 305 305 306 306 306 307 308 308 307 307 306 306 306 306 306 306 305 305 305 305 305 305 305 305 305 304 304 304 303 303 302 301 300 299 298 297 297 296 296 296 296 295 295 295 294 294 294 294 294 294 294 295 295 295 295 295 295 295 295 295 295 295 295 295 295 295 295 295 295 295 294 294 294 293 293 292 291 291
306 305 306 310 312 309 306 305 305 305 305 306 306 306 307 307 307 306 306 305 305 305 305 305 305 304 304 304 304 303 304 304 305 304 304 303 303 302 302 301 300 300 299 298 297 296 296 296 296 296 295 294 294 294 294 294 294 294 294 294 294 295 295 295 295 295 295 295 295 295 295 295 295 294 294 294 295 295 295 295 294 294 294 293 292 292 291
305 304 304 306 307 306 304 304 305 305 304 305 306 306 306 306 306 305 305 305 305 305 305 305 305 304 304 304 303 303 303 304 304 304 303 302 302 301 300 300 300 299 298 297 296 296 297 297 297 296 295 294 294 295 295 294 294 294 294 294 295 295 295 295 294 294 294 294 294 294 294 294 294 294 294 294 294 294 294 294 294 294 294 294 293 293 292
303 303 304 304 304 304 305 305 305 305 304 304 305 305 305 305 305 305 305 305 305 305 305 305 304 304 304 304 304 303 303 303 303 302 301 301 301 300 300 299 299 298 297 297 296 297 297 297 297 296 295 295 295 295 295 295 294 294 294 295 295 295 295 295 294 294 294 294 294 294 294 294 294 294 294 294 294 294 294 294 294 294 294 294 294 294 294
303 304 304 304 304 305 305 305 304 304 304 304 304 304 304 305 305 304 305 305 305 305 304 304 304 304 304 304 304 304 303 302 301 301 301 300 300 300 299 299 299 298 298 297 297 297 297 297 297 296 296 296 296 296 296 296 295 295 294 294 295 295 295 295 294 294 294 295 295 295 294 294 295 294 294 294 294 294 294 294 294 294 295 294 294 294 294
304 304 304 305 305 305 305 304 304 304 304 304 304 304 304 304 304 304 305 305 305 304 304 304 303 304 303 303 303 303 302 301 301 301 300 300 300 299 299 299 299 298 298 297 297 297 297 297 297 297 297 297 297 297 297 296 296 295 295 295 294 295 295 294 294 294 294 295 295 295 295 295 295 295 295 295 295 295 295 295 294 295 294 295 295 295 294
307 307 306 305 305 305 305 304 304 304 303 303 303 303 303 304 304 304 304 304 304 304 304 304 303 303 303 303 303 302 302 301 301 301 300 300 300 300 300 299 299 298 298 298 298 297 297 298 298 297 297 297 297 297 297 297 297 296 296 296 295 295 295 294 294 295 295 295 295 295 295 295 295 295 295 295 295 295 295 295 295 295 295 295 295 295 294
308 308 308 306 306 306 305 304 303 303 303 302 302 302 303 303 304 304 304 304 304 304 304 303 303 303 303 303 302 302 302 301 301 301 300 300 300 300 300 300 299 299 298 298 298 298 298 298 298 298 298 297 297 297 297 297 297 297 297 297 296 296 296 295 295 295 294 294 294 294 294 295 295 295 295 295 295 295 295 295 295 295 295 295 295 295 294
306 306 306 305 305 305 305 304 303 303 302 302 302 302 302 303 303 303 303 303 303 303 303 303 303 302 303 303 302 302 301 301 301 301 301 300 299 300 300 300 299 299 298 297 298 298 299 299 300 299 299 298 298 298 298 298 298 298 297 297 297 297 297 297 296 296 295 295 295 295 294 294 295 295 295 295 295 295 295 295 295 295 295 295 296 295 295
305 304 304 304 304 304 304 304 304 303 303 302 302 301 302 303 302 303 303 302 302 302 302 302 302 302 302 302 301 301 301 301 301 301 300 299 299 299 299 299 299 298 298 297 298 298 299 299 300 300 300 299 299 298 298 299 299 298 298 298 297 297 297 297 297 297 296 295 295 295 295 295 295 295 295 295 295 295 294 295 295 295 295 295 295 295 295
305 304 304 304 304 304 303 303 303 303 302 302 301 301 302 302 302 302 302 301 302 302 302 302 302 302 301 301 300 300 300 300 300 300 300 299 299 299 299 298 298 298 298 298 298 297 298 299 299 300 300 300 299 299 299 299 299 299 299 298 298 298 297 297 297 297 296 296 296 296 295 295 295 295 295 295 295 295 295 295 295 295 295 295 295 295 295
304 304 305 304 303 303 302 302 302 302 302 301 301 301 301 301 301 302 301 301 302 302 301 301 301 300 299 299 299 299 299 299 299 299 299 299 299 299 298 298 298 297 298 299 298 298 298 299 299 300 300 300 300 300 299 299 299 299 298 298 298 298 298 297 297 296 296 296 296 296 296 296 295 295 295 295 295 295 295 295 295 295 295 295 295 295 295
303 303 303 303 302 302 301 301 301 301 301 301 301 300 300 300 301 301 301 301 301 301 301 300 300 299 299 298 298 298 298 299 299 299 299 299 299 299 298 298 299 299 299 299 299 299 299 299 299 299 300 300 300 300 299 299 299 299 298 298 298 298 297 297 297 296 296 296 296 296 296 296 295 295 295 295 295 295 295 295 295 295 295 295 295 295 295
303 303 303 303 302 302 301 301 302 301 300 301 301 300 300 300 300 301 301 301 301 301 301 300 299 299 299 299 298 297 298 298 298 299 299 298 299 299 298 298 299 299 299 300 300 300 299 299 299 299 299 299 299 299 299 299 298 298 298 298 297 297 297 297 297 297 296 296 296 296 295 295 295 295 295 295 295 295 295 295 295 295 295 295 295 295 295
303 303 303 303 303 302 302 302 302 301 300 300 300 300 300 301 301 301 301 300 300 301 301 300 300 300 299 299 298 298 297 297 298 298 299 298 298 298 298 298 298 299 299 299 300 300 300 299 299 299 299 299 299 299 298 298 298 298 297 297 297 297 297 297 296 296 296 296 296 296 296 296 295 295 295 295 295 295 295 295 295 295 295 295 296 295 295
303 303 303 303 303 303 302 302 302 301 300 300 299 299 300 300 301 301 300 300 300 301 301 301 300 300 299 299 298 297 297 297 298 298 298 299 299 298 298 298 298 299 299 299 300 300 299 299 299 299 299 299 299 298 298 298 298 297 297 297 297 297 296 296 296 296 296 296 296 296 296 296 296 296 295 295 295 295 295 296 296 296 296 296 296 296 296
303 303 303 303 303 302 302 302 302 302 301 300 299 299 300 300 300 300 299 299 300 301 300 300 300 299 299 298 298 297 297 298 298 298 298 299 299 299 300 300 300 299 299 299 299 299 299 299 299 299 299 299 298 298 298 297 297 297 297 297 297 297 297 297 297 296 296 296 296 296 296 296 296 296 296 296 296 296 296 296 296 296 296 296 296 296 296
303 303 303 303 302 302 302 302 302 302 301 300 299 299 299 299 299 299 299 299 300 300 300 300 300 299 299 298 298 298 298 297 298 298 298 298 298 299 300 301 301 300 299 299 299 299 299 299 299 299 299 298 298 298 298 297 297 297 297 297 297 297 297 297 297 297 296 296 296 296 296 296 296 296 296 296 296 296 296 296 296 296 296 296 296 296 296
302 302 302 302 301 301 302 302 302 302 301 300 299 299 299 299 299 299 299 299 299 299 300 300 300 299 299 298 299 299 299 299 299 299 298 298 299 299 300 301 301 301 300 299 299 298 299 299 299 298 298 298 298 298 298 297 297 297 297 297 297 297 297 297 297 297 297 297 297 296 296 296 296 296 296 296 296 296 296 296 296 296 296 296 296 296 296
302 301 300 300 301 301 301 301 301 300 299 299 299 299 299 299 299 299 299 299 299 299 299 300 300 300 299 299 299 299 298 298 299 299 299 299 300 301 301 301 301 300 299 298 297 297 298 298 298 298 299 299 298 298 298 298 298 298 298 298 297 297 297 297 297 297 297 297 297 297 297 297 296 296 296 296 296 296 296 296 296 296 296 296 296 296 296
301 300 300 300 300 300 300 299 299 299 299 300 300 300 299 298 298 299 299 299 299 299 299 299 300 300 300 300 300 299 298 298 298 299 300 300 300 301 301 301 300 299 299 298 298 298 298 298 298 298 298 298 298 298 298 298 298 298 297 297 297 297 297 297 298 297 298 297 297 297 297 297 297 297 297 297 296 296 297 297 297 296 297 297 296 296 296
301 300 300 300 300 299 299 299 299 299 300 301 300 299 298 298 298 298 298 298 299 299 299 298 299 299 300 300 301 301 301 300 299 299 299 299 300 300 301 301 300 299 299 299 299 299 299 299 299 298 298 298 298 297 297 297 298 297 297 297 297 297 298 298 298 298 298 297 297 297 297 296 297 297 297 297 297 297 297 297 297 297 297 297 297 297 297
300 299 299 299 299 299 299 299 300 300 300 300 299 298 298 297 298 298 298 298 299 299 299 299 299 299 299 300 300 301 302 302 301 301 300 300 300 300 301 301 300 300 299 299 299 299 299 299 299 299 299 299 298 298 298 298 298 298 298 298 298 298 298 298 298 298 298 298 297 297 297 296 296 297 296 297 297 297 297 297 297 297 297 297 297 297 297
299 299 299 299 299 299 299 299 300 300 299 298 297 297 297 297 297 297 298 298 299 299 299 299 299 299 299 299 300 300 301 301 301 301 301 301 300 301 301 301 300 300 299 299 299 299 299 299 299 299 299 299 299 299 299 299 299 299 299 299 298 298 298 298 298 298 298 298 298 297 297 297 297 297 297 297 297 297 297 297 297 297 297 297 297 297 297
298 299 299 299 299 299 299 299 299 299 299 298 297 297 297 297 297 297 297 298 299 299 298 298 298 298 298 298 299 299 299 299 299 299 300 300 300 300 300 300 300 300 299 299 299 299 299 299 299 299 299 299 299 299 299 299 299 299 299 298 298 298 297 296 296 296 297 297 298 297 297 297 297 297 297 297 297 297 297 297 297 297 297 297 297 297 297
298 298 298 298 298 298 298 298 298 298 298 297 297 296 297 296 296 296 296 297 298 298 298 298 298 298 298 298 298 299 299 299 299 299 299 299 300 300 300 300 300 300 299 299 299 299 299 299 299 299 299 299 299 299 299 299 299 299 298 298 298 298 297 296 295 295 296 296 297 297 297 297 297 297 297 296 296 296 296 296 297 297 297 297 297 297 297
Wind_Speed
1 1 1 3 3 4 7 10 12 13 11 11 12 8 5 7 6 5 5 9 8 6 12 17 16 15 14 14 13 11 12 12 11 12 15 16 15 15 15 14 15 16 15 14 15 16 16 16 15 15 16 17 16 14 13 11 9 9 8 7 8 9 9 9 9 8 8 8 8 9 9 9 10 11 11 11 11 11 12 13 13 13 14 17 18 17 21
4 3 1 3 4 3 3 5 9 11 13 13 11 7 4 6 4 2 5 12 8 2 8 13 11 11 12 12 12 12 14 14 13 13 15 16 16 17 19 18 15 14 15 16 17 17 17 17 17 17 17 16 15 14 13 11 9 9 8 8 9 10 9 9 9 8 8 8 8 9 9 9 10 10 10 11 11 12 13 13 13 16 20 24 26 25 26
3 4 4 4 3 5 4 2 2 6 10 9 6 5 4 3 1 1 4 8 5 1 6 10 9 9 10 12 14 15 15 15 16 16 16 18 18 17 16 15 13 14 16 17 17 18 18 18 18 18 18 16 15 14 13 11 9 9 9 10 11 10 10 11 11 9 9 9 9 9 10 10 10 10 11 12 12 13 13 13 16 23 27 28 28 27 27
1 3 5 5 4 6 5 2 3 6 7 5 3 3 4 5 5 6 5 4 3 4 9 12 11 11 13 15 16 15 15 17 19 19 17 17 18 16 13 12 13 14 15 16 19 20 20 19 18 19 19 17 16 16 14 11 10 9 10 12 12 11 12 13 13 13 13 12 11 11 10 10 11 12 12 13 13 15 17 20 24 28 29 29 29 28 28
2 2 2 2 4 6 4 1 2 4 2 3 3 2 3 5 6 7 5 2 2 8 13 13 14 16 17 17 16 15 15 17 19 20 19 17 15 14 13 13 15 15 14 17 21 22 20 18 18 19 19 18 17 18 16 13 11 12 13 13 13 12 13 14 14 15 16 16 16 15 13 12 12 12 14 17 20 23 26 28 29 30 31 31 31 30 29
3 1 3 0 4 5 3 1 1 2 1 1 3 2 3 5 4 2 1 1 6 13 16 16 17 16 15 15 15 13 13 15 16 16 17 16 14 12 12 15 16 16 17 19 21 21 20 19 19 19 18 17 18 20 18 15 14 14 14 14 13 12 12 13 14 15 17 19 20 20 19 19 19 19 22 25 27 28 29 30 30 31 32 32 33 32 31
3 1 2 2 3 2 1 0 2 3 2 2 2 2 3 5 3 1 1 3 10 14 14 15 16 12 9 11 12 12 13 14 14 13 13 15 16 16 15 15 16 19 22 22 21 21 21 20 20 20 18 18 19 20 19 18 17 16 15 13 12 11 12 13 14 16 18 20 21 22 23 24 25 26 27 28 28 29 30 31 31 32 32 33 33 33 33
2 3 2 2 1 1 2 3 2 2 3 3 2 2 5 7 7 4 3 6 11 12 10 10 10 8 9 8 8 11 14 14 15 15 13 14 16 18 18 19 21 22 22 23 24 23 22 22 21 20 19 20 21 21 19 19 20 20 18 14 12 13 14 14 16 18 20 22 24 24 25 26 27 28 28 29 29 30 31 32 32 32 32 33 32 32 32
1 3 3 0 3 2 2 2 3 5 4 4 3 2 3 6 8 7 6 8 12 12 11 10 10 10 10 7 5 9 13 14 14 14 13 15 17 17 18 20 22 21 21 22 23 22 21 22 23 22 21 22 23 22 19 18 21 22 21 17 15 15 15 15 18 20 21 24 25 25 26 27 28 28 29 29 30 30 32 32 32 32 32 31 31 31 32
0 3 3 1 3 3 2 1 3 4 3 2 1 1 0 5 9 9 9 12 14 13 13 14 12 11 9 7 8 10 12 12 11 10 11 14 16 18 20 20 20 20 21 23 24 24 23 24 25 26 24 23 23 21 19 20 21 22 22 20 17 17 18 18 20 22 23 25 26 26 27 27 28 29 29 30 30 30 31 32 31 31 31 31 31 31 31
2 4 4 3 3 3 3 1 1 2 2 2 2 0 1 5 9 11 11 14 15 14 15 17 14 11 9 9 9 11 13 12 11 11 11 12 15 19 21 23 23 24 24 24 25 26 26 26 27 28 26 24 23 20 20 21 22 22 23 21 19 19 19 19 21 23 24 25 26 27 28 28 29 30 29 29 30 30 30 31 30 29 29 30 31 30 30
4 4 3 2 3 2 3 2 2 2 2 3 3 3 2 2 8 12 13 16 18 16 15 15 15 12 9 6 6 13 15 13 13 14 15 16 18 21 21 21 23 24 26 28 27 24 24 26 27 27 25 23 21 19 21 22 23 23 23 21 20 20 20 20 22 23 24 25 26 28 29 29 30 30 29 29 29 30 30 29 28 28 28 29 30 29 28
5 5 3 1 2 2 2 2 3 2 2 2 4 4 1 1 7 11 11 13 17 18 17 15 12 6 1 2 8 15 16 14 13 15 17 20 22 24 24 26 27 25 25 28 28 26 27 29 28 27 25 22 20 21 23 24 24 24 22 21 21 20 21 22 23 23 25 26 27 28 28 29 29 29 29 29 29 29 28 27 27 27 26 26 27 27 27
3 3 3 1 2 2 3 3 2 2 3 3 2 1 1 2 7 10 10 11 15 18 16 11 5 3 5 7 13 16 16 14 14 14 16 18 20 21 24 28 30 27 24 24 26 27 28 29 29 27 25 24 23 24 25 25 25 24 23 22 21 21 22 22 23 25 26 26 27 27 27 27 28 28 28 28 28 28 27 26 26 25 23 21 22 23 24
2 2 3 2 1 3 7 8 4 3 3 1 1 1 0 2 6 9 10 10 13 16 12 5 6 8 10 12 14 14 14 15 16 16 17 19 21 24 24 24 26 29 28 26 27 27 27 29 29 26 24 26 26 25 26 26 26 25 24 22 22 22 23 24 24 25 26 26 26 27 26 26 27 28 28 27 27 26 25 24 23 22 20 19 19 20 20
2 3 4 2 0 1 4 5 3 2 1 1 1 1 1 1 4 7 7 9 12 14 9 8 9 11 12 13 14 14 14 15 16 17 19 21 24 26 25 24 27 31 32 28 25 24 25 28 28 25 26 29 28 26 25 26 27 26 25 23 23 23 24 25 25 26 26 26 25 25 25 26 27 28 27 26 26 25 23 20 20 19 18 17 18 17 17
1 1 1 1 2 2 2 1 1 3 3 2 1 2 1 1 3 5 6 8 10 10 10 11 11 11 12 13 13 13 14 16 15 16 19 23 25 26 24 25 29 34 34 29 24 22 23 26 26 25 27 30 29 26 26 27 27 27 26 24 24 24 25 25 25 26 25 25 25 24 25 26 27 27 26 25 23 22 20 18 18 17 16 16 16 16 15
1 1 1 2 3 3 3 2 2 4 4 2 1 2 2 1 3 4 6 8 9 11 12 12 11 11 13 14 13 14 17 16 14 15 19 23 25 25 23 23 28 32 32 29 26 24 23 24 25 25 27 29 29 28 27 27 26 26 26 26 26 25 25 25 25 25 25 25 24 24 24 25 26 26 25 24 22 19 18 16 16 16 15 14 14 14 14
2 1 1 3 4 3 4 4 3 2 2 2 2 2 3 2 1 4 6 8 10 11 12 12 12 13 14 15 14 14 15 14 13 17 22 24 24 24 24 26 31 32 28 24 24 24 23 23 25 26 27 28 28 28 28 27 26 26 26 26 26 26 26 26 25 25 25 25 24 24 24 25 25 24 23 23 20 17 15 15 14 14 14 13 13 13 13
1 1 2 3 4 4 4 3 2 2 3 3 3 2 2 1 1 3 6 9 11 10 10 13 15 14 14 15 14 12 11 14 16 18 21 23 21 20 22 28 34 33 27 23 24 25 24 25 27 28 27 28 28 28 28 26 26 26 26 26 27 27 26 26 26 25 25 25 25 25 25 25 24 23 22 21 19 17 15 14 13 13 13 12 12 11 10
1 2 2 2 3 3 4 3 2 2 3 4 4 3 1 2 4 5 6 7 8 10 12 13 15 15 14 14 15 13 12 15 17 18 19 22 22 21 23 28 34 34 30 26 25 25 26 28 29 28 27 28 28 28 27 27 27 27 27 27 27 27 27 26 26 26 25 26 26 26 26 25 24 23 22 21 20 19 18 16 15 14 13 13 12 11 10
0 1 2 2 1 1 2 2 1 1 2 2 3 2 1 4 6 8 8 6 4 7 12 14 16 15 13 13 16 16 13 15 17 18 20 21 21 21 23 27 31 34 33 31 28 24 24 27 28 27 27 28 28 28 28 28 28 27 27 28 27 27 27 27 27 27 26 26 26 26 26 25 24 23 21 20 19 18 18 17 16 15 15 14 13 12 12
1 2 1 2 0 2 1 1 1 2 1 2 2 2 2 3 5 8 10 10 7 6 8 11 15 16 15 15 16 15 14 17 20 22 23 23 22 21 23 26 26 26 29 32 30 25 23 23 25 26 27 28 28 28 28 28 27 27 28 29 27 26 27 27 27 27 27 27 27 26 25 24 23 21 20 19 18 17 17 16 15 15 15 15 14 13 13
1 2 0 2 1 1 1 2 1 1 0 1 1 1 1 3 5 6 7 10 11 10 8 8 10 14 16 16 15 14 16 19 22 23 24 26 26 26 26 28 28 28 29 31 30 26 24 24 25 27 27 27 28 28 27 27 26 27 29 30 29 27 27 28 28 28 28 27 27 26 25 23 21 18 18 18 17 17 17 16 15 15 15 14 14 14 13
2 2 1 2 2 3 3 2 2 2 2 1 2 3 3 3 5 5 5 6 8 11 11 8 7 11 15 15 14 15 16 19 23 25 24 25 26 27 28 29 30 31 31 31 29 25 24 26 28 28 27 27 28 28 27 27 28 29 30 31 31 30 30 29 28 28 28 27 26 25 24 22 19 16 15 16 16 16 16 15 14 14 14 13 13 13 14
0 3 4 5 5 3 1 1 2 3 4 2 3 4 4 5 6 6 6 5 5 7 10 11 12 16 18 18 17 16 14 18 24 26 24 23 23 23 26 30 32 32 32 29 26 25 27 29 30 30 28 29 29 29 29 29 29 29 29 30 31 32 32 31 29 27 26 26 25 23 22 21 18 15 15 15 16 16 15 14 13 13 13 12 12 13 14
3 3 4 4 4 2 2 2 2 3 3 4 5 5 6 8 9 9 9 10 11 11 12 15 19 20 18 20 23 20 17 19 22 20 20 22 23 22 26 32 34 34 33 28 25 27 30 31 30 30 29 31 31 31 30 30 29 28 29 29 30 31 31 30 29 27 26 26 25 24 22 20 17 16 17 17 15 14 13 12 12 11 10 10 11 12 13
2 1 1 1 2 3 3 2 3 4 5 5 6 6 8 9 9 9 10 10 11 12 13 17 22 21 17 17 21 20 18 19 19 17 18 21 23 25 30 33 33 34 33 30 29 30 30 29 29 30 31 32 33 32 30 29 28 28 29 29 30 30 30 29 29 28 27 25 24 22 21 20 18 17 18 16 13 12 11 11 11 10 9 9 10 11 11
3 2 2 3 5 6 6 5 5 6 6 6 6 7 8 9 8 8 8 8 9 10 10 12 18 20 18 20 22 20 17 16 17 19 22 24 26 28 30 31 32 33 33 32 30 29 27 26 28 30 32 34 34 32 30 29 29 28 28 29 30 31 29 29 29 28 26 24 22 21 21 20 18 17 16 14 12 11 11 10 9 9 9 9 9 9 8
3 4 5 6 6 7 7 6 6 6 6 6 7 6 6 8 8 7 7 7 7 8 8 9 12 14 16 19 21 22 21 20 20 22 24 25 27 29 31 31 30 27 27 29 30 28 27 28 30 32 35 35 34 33 31 30 29 29 28 28 29 30 30 29 28 26 24 22 21 20 19 18 17 15 14 13 12 11 10 9 9 8 7 7 7 7 6
5 5 6 6 5 6 7 6 5 5 5 6 7 6 6 7 8 9 8 6 5 8 10 11 12 13 14 16 18 20 22 24 25 26 26 26 27 28 31 33 31 26 27 31 32 30 30 30 31 34 37 36 34 33 32 30 30 29 28 28 28 27 27 27 26 24 22 21 20 19 18 17 15 14 14 13 12 10 9 9 8 7 6 6 6 5 5
8 7 6 5 4 5 6 5 5 5 5 5 6 6 5 6 7 8 7 5 6 10 11 10 11 14 17 18 19 19 21 22 24 26 26 27 28 28 28 30 30 29 30 33 34 33 33 33 33 35 37 36 34 34 32 30 30 30 29 28 27 26 25 24 24 23 21 20 19 17 16 15 15 14 14 12 11 10 9 8 8 7 6 6 5 5 5
8 6 4 4 4 4 5 4 4 4 4 4 4 4 3 4 5 6 7 8 9 11 11 11 12 16 20 21 21 22 22 21 20 20 22 24 27 27 26 27 28 29 30 31 33 34 35 35 35 36 36 36 35 33 32 30 29 29 29 28 27 25 24 22 21 20 19 18 17 16 16 16 15 14 13 13 13 12 10 9 8 8 7 6 6 5 5
3 2 4 5 4 3 5 6 5 5 5 4 4 4 4 4 5 7 9 10 10 10 12 14 17 20 22 22 22 23 22 18 15 16 20 23 25 25 26 26 27 27 28 29 31 33 34 35 35 36 36 36 35 33 32 30 28 27 28 27 27 26 24 22 21 19 18 17 16 15 15 16 15 14 14 14 14 13 12 11 10 9 8 7 7 7 7
1 2 4 4 1 2 5 7 6 6 6 6 5 4 5 6 7 8 9 9 10 13 16 19 20 20 21 21 21 22 21 19 17 18 21 24 25 25 25 25 24 24 25 26 29 32 34 34 34 35 35 35 35 33 31 29 28 27 27 26 26 25 24 23 22 21 19 18 17 16 15 15 15 15 15 15 15 14 13 13 12 11 10 8 8 8 8
2 4 4 4 3 4 5 6 6 6 6 6 5 6 6 7 9 10 10 11 13 17 19 21 21 20 19 19 19 20 21 22 22 22 22 23 25 25 24 23 23 23 22 21 24 29 32 33 32 32 33 34 34 33 31 29 28 27 27 26 26 25 24 23 22 21 21 20 19 18 17 16 16 16 16 16 16 15 15 14 13 13 12 11 9 9 9
2 4 5 4 5 6 6 5 6 7 6 6 6 7 8 9 9 11 12 14 16 18 20 19 18 17 17 19 21 21 22 23 24 24 25 25 25 24 22 20 21 22 20 18 20 26 29 30 30 30 30 32 32 32 31 29 28 27 27 27 26 25 23 23 22 21 21 21 20 19 19 18 17 17 17 17 17 16 16 15 15 14 14 13 12 12 12
3 4 5 6 7 7 7 6 7 8 8 8 7 7 9 10 11 12 12 13 15 18 19 18 17 17 18 19 20 20 21 23 24 25 26 26 24 22 20 19 20 20 20 21 24 25 25 26 28 29 29 30 31 31 30 29 28 27 26 26 26 25 24 23 22 21 20 20 19 19 20 20 20 19 19 19 18 18 17 17 16 16 16 15 15 15 15
5 5 6 7 7 7 7 8 8 8 9 9 8 8 10 12 13 13 12 12 15 19 20 20 20 20 20 19 18 19 21 23 24 26 27 25 23 22 20 20 21 22 22 24 26 26 25 26 27 28 29 30 30 30 29 29 28 27 25 24 24 24 23 23 22 21 20 19 18 18 19 20 20 20 20 19 19 19 19 18 18 17 17 17 16 16 16
4 5 7 8 8 7 7 7 7 7 8 9 10 10 12 12 13 13 12 12 15 19 22 21 20 17 16 16 17 18 21 23 25 26 26 23 22 20 18 17 20 22 21 23 25 26 25 26 28 28 29 30 29 28 28 28 27 26 24 23 23 23 23 22 21 21 20 19 19 18 19 19 20 20 19 19 18 18 18 18 18 17 17 16 16 15 15
4 6 7 7 8 8 7 7 7 8 8 8 10 12 13 14 14 13 12 14 17 19 20 20 18 15 15 17 20 21 22 23 25 26 26 24 21 18 15 15 19 21 19 20 23 23 23 25 27 28 29 28 27 26 26 26 26 25 24 23 22 22 22 21 21 20 20 20 20 20 20 20 21 20 19 18 18 18 18 18 18 18 18 17 17 16 15
5 6 7 6 7 8 9 8 8 8 8 8 10 13 14 14 14 14 14 16 17 16 16 18 20 19 18 20 22 23 23 22 23 25 25 25 24 20 16 16 20 21 19 19 22 22 22 24 27 28 27 27 25 24 23 24 24 24 24 23 22 21 21 21 21 21 20 20 20 20 20 20 21 21 21 20 20 20 19 19 19 19 19 19 19 19 18
6 7 7 6 6 7 8 9 9 8 8 8 11 13 13 12 13 14 15 16 16 14 14 17 19 20 21 23 23 22 21 22 23 22 20 20 23 23 20 19 20 20 19 20 23 23 24 26 28 27 27 26 24 23 22 23 23 24 23 22 21 20 20 21 21 21 21 21 21 21 20 21 21 22 22 22 22 22 22 22 21 21 21 21 21 21 21
7 6 6 7 7 7 8 9 9 9 8 8 11 13 13 12 13 16 16 15 14 14 16 18 18 19 22 24 23 20 19 22 23 21 16 13 15 17 19 19 20 20 20 21 22 23 25 27 29 28 27 25 24 24 23 23 22 22 21 20 19 19 19 19 19 19 19 19 20 21 22 22 23 23 24 24 24 24 24 24 23 23 23 24 23 22 21
7 6 6 7 7 7 7 8 8 9 10 11 11 12 11 11 13 15 16 15 15 16 18 20 20 21 21 22 23 23 24 26 27 25 20 15 12 14 17 19 20 21 21 21 21 21 23 25 27 27 26 25 25 24 24 23 22 21 20 19 19 18 19 19 19 19 19 20 20 21 22 23 23 24 25 25 25 25 25 25 25 25 25 25 25 23 22
7 7 8 8 7 6 6 7 9 12 13 12 10 8 8 10 12 14 15 16 18 18 19 21 23 24 23 22 22 23 24 25 26 27 25 21 18 19 20 20 20 22 23 22 21 20 20 21 22 23 23 23 23 23 23 23 22 22 21 21 21 20 21 21 21 21 22 22 23 23 24 24 25 25 25 25 26 26 27 27 27 26 26 26 26 25 24
7 8 8 8 8 8 8 10 12 13 12 9 6 6 8 11 12 13 14 17 18 18 18 20 22 24 24 25 24 23 23 21 19 20 21 20 20 21 21 20 21 23 25 23 22 21 20 20 20 21 21 21 21 22 22 22 22 22 22 22 22 22 22 22 21 21 21 22 22 23 24 25 26 28 28 28 28 29 29 28 27 27 26 27 27 27 26
8 8 8 9 10 12 12 12 11 10 8 7 7 8 10 12 12 12 13 16 17 16 15 17 18 20 22 24 24 25 26 23 17 15 18 20 20 20 21 21 21 23 25 24 22 21 21 20 19 20 20 20 21 22 22 22 22 22 22 23 23 22 22 22 21 21 20 20 20 20 20 21 23 25 27 28 29 29 29 29 29 28 28 28 28 28 28
8 8 9 10 11 11 11 10 8 7 7 8 9 11 12 12 12 12 13 15 15 14 14 14 15 17 19 21 21 23 26 24 20 18 21 22 21 20 21 21 21 23 25 25 23 22 22 21 21 20 20 21 22 22 22 21 21 22 22 22 23 23 23 22 22 22 21 21 21 21 20 20 20 21 22 24 25 27 27 27 27 27 27 27 27 28 28
7 8 9 9 10 11 12 10 8 8 8 9 11 14 14 12 12 14 15 16 15 13 12 13 14 16 18 19 19 19 22 23 20 18 20 23 23 22 22 21 21 22 24 25 24 23 23 23 22 21 22 22 22 23 23 23 22 22 23 23 23 24 24 24 25 25 25 25 24 24 23 23 22 21 22 23 24 25 25 26 26 26 27 27 28 28 29
10 9 9 9 10 13 14 13 11 12 12 11 14 16 15 13 13 15 16 16 14 13 12 12 12 14 17 19 18 18 20 21 19 16 17 22 26 25 22 21 21 22 22 23 24 24 24 24 23 22 22 23 23 24 24 24 24 24 25 25 24 24 24 25 26 28 29 29 28 26 25 24 24 23 24 24 24 25 25 25 25 26 26 27 28 28 29
11 11 11 11 10 11 10 10 11 12 13 14 16 17 17 15 15 15 15 14 14 15 15 14 12 12 14 16 17 17 18 19 18 15 15 19 24 25 23 21 21 21 21 21 22 23 23 23 22 22 22 23 24 24 24 24 25 25 26 26 25 24 24 23 24 26 27 29 29 29 28 27 27 27 27 27 27 27 27 27 27 27 27 28 28 29 30
Wind_Direction
92 299 221 198 199 194 185 179 178 177 175 180 189 195 171 160 194 231 170 174 200 194 187 191 181 170 165 154 148 143 138 141 141 140 141 138 138 140 145 153 153 153 154 147 138 135 131 133 131 123 116 110 105 104 102 97 91 96 102 97 95 101 102 98 98 103 105 99 91 90 93 93 92 92 89 84 80 76 73 70 65 59 60 66 67 64 64
81 39 22 171 171 159 167 190 186 175 176 185 188 182 166 170 208 281 171 182 202 191 181 189 176 159 155 144 140 143 143 143 145 147 147 144 147 153 156 158 155 152 150 142 138 139 137 137 134 124 117 113 112 111 107 102 102 110 114 105 101 104 104 107 111 106 99 97 95 94 93 91 90 88 84 81 78 74 71 68 65 67 72 74 74 71 69
82 47 46 72 143 154 140 160 192 170 169 176 175 154 148 154 133 46 166 182 206 234 170 166 146 132 137 144 151 154 152 153 153 154 155 154 154 157 156 154 150 147 144 142 143 144 143 143 139 130 126 125 123 119 113 111 112 115 116 110 106 107 112 121 123 114 103 99 97 96 94 91 90 87 85 82 77 74 73 71 73 77 78 77 75 74 72
152 37 37 46 90 124 125 139 177 168 162 160 149 143 173 180 147 126 141 180 213 180 159 153 144 141 146 155 161 160 160 162 161 160 161 159 157 156 154 150 146 144 144 147 149 150 149 147 140 134 133 133 128 121 116 118 121 121 117 115 116 119 124 130 131 125 120 111 103 98 94 92 92 89 86 82 79 80 81 82 82 81 79 78 76 75 74
153 28 6 38 112 134 140 164 178 172 161 145 137 131 213 198 155 139 156 199 148 151 154 153 153 159 165 168 169 167 166 167 167 164 161 158 156 154 153 151 147 145 146 151 153 153 151 145 138 138 139 136 132 129 127 129 132 125 117 118 120 121 125 132 133 128 123 117 111 107 102 99 97 93 92 91 90 90 89 87 85 83 81 79 77 76 75
153 15 330 153 147 159 161 15 228 216 275 178 170 193 227 206 173 128 79 64 140 156 164 168 168 169 171 170 168 165 162 164 164 161 157 155 155 156 154 151 150 150 152 155 155 152 149 141 136 138 138 132 132 135 137 140 137 125 117 119 121 120 123 130 130 126 122 118 115 112 110 108 105 102 100 98 96 95 92 90 88 84 82 80 78 76 75
139 46 349 129 137 141 130 272 238 226 239 253 264 288 247 212 199 105 73 184 175 171 173 177 175 168 151 149 157 160 159 159 156 155 159 160 159 162 158 153 155 157 157 157 154 148 145 141 138 138 135 131 133 136 140 142 135 125 121 121 122 123 123 126 128 125 121 119 116 114 112 109 107 105 102 100 98 96 94 92 89 86 83 81 79 78 76
136 126 134 142 101 42 148 164 170 159 179 209 229 243 217 207 207 192 169 184 182 173 169 168 162 144 125 127 148 161 163 164 160 158 162 162 162 164 161 159 161 160 158 156 152 146 144 141 139 139 138 138 138 138 141 142 134 130 131 128 125 127 127 128 129 127 123 121 118 115 112 110 108 106 104 102 99 97 95 93 90 88 85 82 80 78 76
139 141 141 153 324 318 163 162 167 167 180 193 192 213 200 189 196 191 165 167 174 168 159 149 132 122 123 131 165 176 172 173 169 163 160 159 159 159 154 153 155 153 149 149 146 142 141 138 138 139 140 142 141 138 138 140 136 135 138 136 134 134 132 131 131 129 126 124 120 116 114 112 109 107 105 104 101 98 96 93 89 87 85 83 81 79 76
97 124 128 178 279 270 235 176 167 173 184 185 168 336 272 177 185 187 172 165 168 162 152 144 132 124 137 165 191 190 182 174 162 153 148 147 148 146 142 139 140 141 143 144 143 141 140 140 143 146 144 143 142 138 138 142 140 137 138 139 140 139 137 136 135 132 128 126 123 119 117 114 112 110 108 106 103 100 97 94 91 88 86 84 82 79 76
150 137 139 172 214 251 270 256 157 184 181 139 117 296 236 177 172 177 172 164 165 164 155 150 146 147 170 195 194 180 173 162 147 140 134 129 135 142 143 142 143 143 143 143 142 141 141 143 148 150 148 146 142 137 138 143 141 137 138 140 143 144 141 140 138 134 131 128 125 122 119 117 114 112 110 107 104 102 99 95 93 90 88 86 83 80 77
152 143 136 185 216 241 277 266 217 210 157 131 170 198 209 163 167 174 174 167 168 166 158 159 166 171 189 211 174 154 152 145 138 139 135 132 137 142 142 141 140 141 142 142 141 139 140 144 146 147 146 144 138 135 141 142 138 137 139 142 145 146 143 142 139 136 133 130 127 124 121 119 116 114 111 109 107 104 100 97 94 91 89 86 84 80 77
155 157 152 216 238 217 228 227 205 185 159 185 203 187 111 128 178 181 180 172 170 167 165 173 183 184 218 50 113 130 136 133 134 137 134 136 142 145 145 144 141 139 141 143 141 141 144 146 148 148 146 139 134 139 143 140 136 139 142 144 145 144 143 142 140 136 134 131 128 125 123 121 118 116 114 112 109 105 102 99 96 93 89 86 83 80 76
140 159 149 158 266 217 163 144 161 199 190 193 199 132 78 185 183 181 182 179 176 175 174 176 164 104 84 99 118 130 135 132 129 127 122 123 129 133 137 142 142 138 137 139 139 140 145 148 150 152 148 140 139 144 143 139 140 144 145 144 144 143 142 140 138 136 133 131 129 127 125 123 120 117 116 114 110 107 104 101 97 93 89 86 83 79 76
107 119 141 155 236 193 151 136 142 214 214 178 10 61 121 198 183 177 178 180 180 180 173 140 106 113 116 119 128 134 133 130 129 129 125 125 130 133 134 140 143 140 137 139 139 140 145 149 152 155 150 143 144 146 143 142 146 146 145 145 144 143 141 139 137 135 133 132 131 129 128 125 122 119 117 114 111 109 105 100 96 92 88 86 84 81 77
163 157 164 165 313 212 159 135 144 220 249 19 314 228 85 149 180 177 175 177 180 177 156 121 122 128 126 131 137 136 133 133 134 133 132 133 138 141 141 142 146 142 137 135 135 138 146 151 153 158 154 148 147 147 145 147 149 147 147 147 145 144 142 139 136 135 134 133 133 131 129 127 124 122 119 115 112 110 104 99 96 93 89 86 84 82 80
182 190 219 299 330 301 270 327 323 296 322 345 250 256 337 140 178 180 175 172 169 159 139 130 132 132 132 138 139 137 140 142 138 134 135 137 141 143 142 143 146 144 140 136 134 136 146 151 154 158 158 152 149 148 148 151 151 149 149 149 146 144 142 139 138 136 135 135 134 132 131 129 126 124 120 116 113 109 103 99 98 95 90 88 86 84 81
231 271 312 319 316 315 306 299 283 288 307 329 298 278 289 240 185 181 172 159 152 146 139 136 136 140 143 141 138 141 145 144 137 133 136 140 141 141 140 142 143 141 138 137 136 136 143 151 154 155 158 156 153 152 152 154 153 152 152 150 147 144 142 141 140 138 137 136 134 133 133 131 128 125 121 117 113 109 105 102 99 97 94 90 88 86 82
194 202 19 332 306 311 315 308 297 281 289 315 318 281 281 289 219 181 160 144 144 147 145 140 139 144 146 142 140 144 145 142 139 140 142 144 143 141 143 145 145 141 137 137 138 137 141 150 154 153 155 158 156 154 154 155 155 156 155 151 147 145 144 143 142 141 139 137 135 134 133 130 128 124 121 117 114 110 109 105 100 98 95 91 89 88 84
214 282 349 324 301 285 277 285 299 302 309 326 327 300 283 276 170 153 146 143 146 148 146 141 140 146 150 146 142 142 143 145 148 147 144 142 139 138 143 146 146 144 141 139 140 140 144 152 155 154 157 160 159 156 156 158 159 158 156 152 149 147 146 145 144 143 141 138 136 134 132 130 128 125 122 119 115 112 110 106 102 99 95 90 88 88 85
308 287 263 274 291 272 239 227 243 278 308 324 324 315 263 165 145 136 138 146 150 151 150 145 142 147 154 151 143 142 145 149 151 148 141 138 138 139 143 147 150 149 146 144 142 142 149 156 156 155 159 162 161 159 160 161 162 161 157 153 150 148 148 147 145 144 142 139 138 135 133 132 129 127 125 122 118 114 108 103 101 100 99 96 91 87 84
29 323 225 208 267 289 222 206 264 309 311 299 288 273 176 159 151 144 140 130 119 141 152 151 148 149 156 158 150 146 148 150 147 141 136 134 137 142 144 148 151 151 149 148 145 143 149 156 156 156 160 162 162 163 164 165 166 163 157 152 150 149 149 147 146 144 142 140 139 137 134 133 130 128 128 125 119 114 108 103 101 100 100 100 97 93 90
26 331 256 195 272 345 24 103 1 342 316 262 246 223 175 158 153 150 147 139 130 136 154 161 156 151 155 161 156 147 147 148 145 142 140 138 139 143 145 145 146 148 148 149 148 146 148 153 155 157 159 160 163 166 167 168 169 166 159 153 150 150 150 149 148 146 143 141 141 139 136 135 132 130 129 126 119 115 110 105 102 102 100 99 97 96 96
356 346 257 166 140 26 72 92 38 350 288 227 195 110 110 143 152 155 154 149 145 145 152 167 165 152 150 157 158 150 145 146 145 144 145 145 145 146 147 147 147 149 150 151 151 151 151 152 154 156 157 160 165 168 170 172 171 166 161 156 152 151 152 151 149 148 145 143 142 141 139 138 135 131 130 126 121 116 112 107 105 105 103 101 97 93 93
331 29 77 117 104 100 114 111 69 38 24 64 97 81 80 120 140 143 143 142 146 147 143 137 138 142 142 145 150 149 144 144 146 145 143 145 147 147 147 149 151 152 154 154 152 152 152 153 155 156 157 161 166 170 171 173 171 166 163 160 156 154 154 151 149 148 146 144 143 142 141 140 137 133 131 129 124 121 118 113 109 107 107 106 101 95 93
147 107 113 104 91 82 87 102 76 37 20 47 83 75 79 93 101 106 108 102 112 131 132 126 131 142 145 139 137 141 141 141 144 144 142 144 148 149 151 155 156 155 155 154 152 152 154 155 156 156 157 162 168 170 170 169 168 165 163 161 158 157 156 153 150 148 147 147 146 144 144 142 140 136 133 130 127 127 127 123 119 114 112 111 108 102 100
142 142 128 112 99 75 18 39 74 56 44 72 91 91 94 99 98 97 94 87 92 107 121 130 134 138 140 136 133 136 142 144 143 142 143 146 150 152 155 158 158 157 155 153 152 155 156 156 155 155 158 163 167 167 166 166 164 162 161 159 158 157 157 155 152 151 150 150 149 147 146 144 141 137 134 132 130 131 133 133 130 125 120 120 119 114 108
87 336 288 214 137 129 108 83 93 93 82 87 100 106 109 108 105 105 101 96 100 108 119 132 136 134 132 132 131 132 141 148 146 142 142 146 150 152 154 155 156 157 157 155 156 157 156 155 154 155 159 163 165 164 164 163 160 159 159 158 156 156 156 157 156 154 153 151 150 149 148 146 142 139 137 136 136 139 140 139 136 133 131 131 130 125 118
36 23 45 80 98 115 119 107 99 97 93 99 108 115 122 121 113 112 114 115 119 123 127 139 141 138 136 137 137 138 143 148 147 144 143 145 148 150 151 152 154 156 157 156 156 157 155 153 154 157 160 163 164 163 163 162 159 157 157 157 157 157 158 159 159 157 154 154 153 152 149 146 143 141 141 142 145 146 147 147 145 141 141 142 140 135 130
49 60 82 92 101 116 117 110 108 110 113 118 116 113 121 124 118 118 123 122 127 133 132 130 130 131 134 140 146 149 149 145 140 138 138 141 146 149 149 149 148 150 154 157 158 159 158 157 158 160 163 165 165 164 163 161 158 157 157 158 159 160 161 162 162 159 158 158 157 156 154 152 150 151 152 154 155 153 153 157 159 155 152 155 155 148 141
91 80 87 96 105 113 112 110 117 119 118 123 123 118 120 121 121 124 127 123 123 130 130 125 125 130 137 142 145 146 144 141 138 138 138 141 146 149 151 151 150 153 159 161 162 163 162 161 163 165 166 167 167 166 164 162 160 159 159 160 162 163 164 165 165 164 164 164 164 164 163 162 163 168 169 168 168 168 167 168 170 170 168 168 166 158 152
101 85 80 84 91 103 108 111 119 120 116 119 123 124 125 127 129 130 129 125 127 131 131 127 125 131 137 138 136 135 135 135 137 140 142 145 148 151 154 156 157 158 162 164 166 167 166 166 168 170 170 170 170 169 168 166 164 162 162 163 164 165 167 169 170 171 172 173 173 174 175 176 179 182 183 183 182 183 183 185 185 185 186 185 180 175 172
113 102 110 126 124 120 122 121 117 120 118 107 102 105 106 110 121 126 126 126 130 132 132 131 131 134 137 136 133 132 130 130 133 137 141 145 150 154 158 160 160 160 163 167 170 172 171 172 173 174 174 174 174 174 173 172 170 168 167 167 167 168 169 172 175 176 178 179 180 182 185 187 189 190 192 193 194 194 196 198 199 200 204 205 201 197 195
104 120 167 171 162 148 152 152 143 131 122 106 99 107 105 98 105 119 127 133 136 137 137 138 138 139 139 138 136 135 135 134 137 144 146 148 151 155 160 163 162 163 166 170 173 174 176 177 178 178 178 178 178 178 178 178 177 174 172 172 172 172 173 175 177 179 181 183 184 187 190 192 194 195 196 198 200 202 205 207 209 212 215 216 216 216 215
56 91 143 157 146 126 146 149 144 139 136 128 122 121 118 116 119 122 126 131 135 138 140 142 142 143 142 141 142 144 146 147 150 152 152 152 154 158 160 161 162 164 168 173 177 179 181 183 183 183 182 182 182 182 183 184 184 182 180 178 178 178 180 182 184 186 188 190 191 193 195 196 196 197 197 200 203 206 209 213 216 218 221 224 225 225 227
112 114 129 137 130 130 137 137 137 138 137 133 129 127 128 130 130 128 127 129 133 138 141 142 143 143 145 147 149 151 152 152 152 153 155 157 157 158 158 160 163 164 164 170 179 183 185 187 189 188 187 186 186 186 187 189 190 190 188 185 184 185 187 189 191 193 196 197 199 201 201 201 202 202 202 205 209 213 216 220 223 226 230 233 235 237 241
116 135 141 139 135 136 133 129 132 131 125 124 130 133 135 136 132 130 130 132 135 140 143 144 144 145 148 152 154 153 153 155 156 156 157 158 158 157 156 158 163 164 164 170 180 186 188 190 191 191 190 189 189 190 192 193 195 197 195 193 191 190 191 194 196 198 200 202 205 207 208 209 210 210 211 213 216 219 223 227 231 235 239 243 247 250 254
105 127 132 128 133 136 131 131 136 133 127 127 131 133 137 138 136 133 133 134 139 143 145 145 144 143 142 144 147 149 153 158 159 157 156 157 159 159 158 159 163 170 176 180 183 186 188 189 188 187 188 188 189 192 194 197 199 199 198 196 194 193 195 197 198 199 201 204 208 212 215 217 218 218 218 221 224 227 232 235 240 244 249 253 257 260 261
117 122 123 123 124 124 123 129 136 136 135 136 134 134 139 140 139 137 136 137 143 148 146 143 142 141 140 140 143 148 156 161 161 158 157 159 161 163 166 171 176 183 189 190 187 187 190 189 187 186 187 187 188 191 194 197 198 197 196 196 195 195 196 198 199 201 205 208 211 215 219 222 224 225 226 227 230 234 239 242 246 250 253 256 260 264 266
130 131 134 134 131 130 132 135 136 139 145 146 144 145 147 145 142 140 137 138 148 153 151 146 142 142 141 142 145 151 159 164 164 160 158 159 161 164 167 175 184 190 194 193 190 190 190 190 188 188 189 188 189 192 194 195 195 196 196 196 195 195 197 199 201 204 208 210 213 218 222 226 229 231 232 233 235 237 240 243 245 249 252 256 261 266 268
135 138 142 143 141 141 143 140 135 138 147 153 153 154 155 153 150 147 143 144 151 156 156 153 150 149 149 151 154 156 160 164 166 163 160 160 162 162 164 176 186 189 190 191 189 188 188 188 189 189 188 188 190 192 193 194 195 196 197 197 197 198 199 201 204 208 212 215 220 224 227 230 232 234 236 238 239 239 241 244 246 249 253 257 261 265 266
141 142 144 147 148 147 148 147 143 143 147 156 160 161 160 160 158 154 149 151 154 154 155 158 159 157 154 154 155 155 158 162 166 166 167 169 171 170 170 179 185 186 187 189 189 186 184 186 188 188 186 185 187 191 193 195 195 196 197 199 200 202 204 207 210 215 220 224 228 231 232 233 234 236 238 240 241 242 244 247 249 253 257 261 263 265 264
155 152 149 150 152 151 150 150 148 143 144 155 163 164 164 163 160 153 150 152 154 152 152 155 156 156 156 157 154 153 157 162 166 168 171 175 179 180 181 183 185 187 189 189 189 188 186 186 186 185 185 186 187 190 193 195 195 196 199 202 205 207 211 214 217 222 226 229 232 234 235 235 235 236 237 239 242 244 247 250 254 258 263 266 269 269 268
160 156 151 152 155 155 153 151 148 146 147 157 166 167 165 163 162 159 156 155 156 158 158 157 156 157 160 160 157 154 158 163 166 167 166 167 177 185 188 188 187 189 189 189 189 191 192 190 189 188 190 191 191 192 193 195 197 200 203 205 208 210 214 218 221 225 229 232 234 235 236 237 236 237 239 242 244 247 250 253 258 263 267 270 272 273 270
158 156 150 151 156 159 157 153 152 152 152 154 161 167 168 167 167 167 163 159 161 164 166 166 166 165 163 162 163 167 171 173 173 172 168 166 173 186 190 191 193 194 192 189 189 190 192 193 194 195 196 197 197 197 198 200 203 205 208 211 213 216 219 223 227 231 235 237 239 239 239 239 239 240 243 246 249 252 255 258 262 267 270 272 272 271 268
154 153 150 150 153 158 156 151 150 151 149 146 149 161 170 170 170 170 170 170 171 172 174 177 176 172 168 168 170 172 174 176 178 180 181 182 185 188 190 195 199 197 190 184 183 183 184 187 192 194 196 198 199 201 203 207 209 212 215 217 220 223 226 229 234 238 240 242 244 244 243 243 243 244 245 247 250 253 256 259 263 267 269 270 270 269 267
152 151 150 148 147 150 153 151 148 147 149 148 148 158 172 175 172 169 172 177 179 179 180 182 181 178 176 176 175 171 169 170 175 184 190 195 196 196 196 197 197 193 187 183 182 182 183 183 186 189 192 195 198 202 207 211 213 217 219 222 225 228 232 235 238 241 243 246 248 248 247 247 247 247 248 250 252 254 257 260 263 266 268 268 268 269 268
159 154 148 145 145 149 152 151 148 151 160 166 161 161 170 176 172 166 168 175 178 179 182 183 182 181 183 184 183 180 178 176 176 186 196 200 202 202 201 199 197 193 190 188 187 189 191 192 192 194 197 200 203 207 211 215 218 221 224 227 229 231 234 236 238 240 243 248 252 252 252 251 249 249 250 251 253 255 258 260 262 264 266 267 268 269 269
159 150 145 143 144 149 151 151 153 162 168 165 161 163 167 167 162 161 167 171 171 173 180 184 182 181 184 185 187 190 191 191 193 197 200 201 203 205 203 201 199 196 194 193 194 195 196 198 200 202 205 209 212 214 217 220 222 223 225 227 230 233 236 239 241 243 246 248 251 253 255 255 254 253 254 255 257 258 260 261 262 263 265 267 268 269 270
153 151 151 152 154 159 163 166 169 167 163 159 160 163 164 159 155 161 170 172 169 170 178 183 184 186 188 188 190 194 197 198 201 203 201 201 203 205 204 203 200 198 197 198 201 201 202 203 206 208 210 213 217 220 222 224 225 226 228 231 235 238 242 244 246 246 246 246 247 249 252 253 254 256 258 259 261 262 262 262 262 263 263 265 267 268 268
165 166 167 168 169 171 175 179 178 172 167 166 165 164 163 161 160 166 172 173 171 171 175 178 182 187 190 190 192 196 198 200 203 206 205 203 203 204 205 205 205 203 202 204 207 208 209 209 211 213 216 218 220 222 225 227 230 233 235 237 240 243 246 248 248 248 246 245 244 246 248 250 252 255 258 259 260 261 262 262 263 264 265 265 267 268 269
173 174 172 169 167 168 172 178 179 175 173 171 168 166 165 162 158 161 168 174 176 177 179 180 183 190 193 193 194 198 200 202 205 208 208 206 206 206 207 207 207 206 205 207 209 211 212 212 214 216 219 221 224 227 230 233 236 239 240 241 243 246 250 252 252 251 249 247 246 247 250 253 255 257 259 260 261 261 262 263 264 265 266 267 268 269 270